Year,Month,Day,Hour,Minute,Value (Times are PST for temperature in C)
2008,05,17,00,00,13.70
2008,05,17,00,01,13.70
2008,05,17,00,02,13.70
2008,05,17,00,03,13.70
2008,05,17,00,04,13.70
2008,05,17,00,05,13.70
2008,05,17,00,06,13.70
2008,05,17,00,07,13.70
2008,05,17,00,08,13.70
2008,05,17,00,09,13.70
2008,05,17,00,10,13.70
2008,05,17,00,11,13.70
2008,05,17,00,12,13.70
2008,05,17,00,13,13.70
2008,05,17,00,14,13.60
2008,05,17,00,15,13.60
2008,05,17,00,16,13.60
2008,05,17,00,17,13.60
2008,05,17,00,18,13.60
2008,05,17,00,19,13.60
2008,05,17,00,20,13.60
2008,05,17,00,21,13.60
2008,05,17,00,22,13.70
2008,05,17,00,23,13.70
2008,05,17,00,24,13.70
2008,05,17,00,25,13.70
2008,05,17,00,26,13.70
2008,05,17,00,27,13.70
2008,05,17,00,28,13.70
2008,05,17,00,29,13.70
2008,05,17,00,30,13.70
2008,05,17,00,31,13.70
2008,05,17,00,32,13.70
2008,05,17,00,33,13.70
2008,05,17,00,34,13.70
2008,05,17,00,35,13.70
2008,05,17,00,36,13.70
2008,05,17,00,37,13.70
2008,05,17,00,38,13.70
2008,05,17,00,39,13.70
2008,05,17,00,40,13.70
2008,05,17,00,41,13.70
2008,05,17,00,42,13.70
2008,05,17,00,43,13.70
2008,05,17,00,44,13.70
2008,05,17,00,45,13.70
2008,05,17,00,46,13.70
2008,05,17,00,47,13.70
2008,05,17,00,48,13.70
2008,05,17,00,49,13.60
2008,05,17,00,50,13.60
2008,05,17,00,51,13.60
2008,05,17,00,52,13.60
2008,05,17,00,53,13.60
2008,05,17,00,54,13.60
2008,05,17,00,55,13.50
2008,05,17,00,56,13.50
2008,05,17,00,57,13.50
2008,05,17,00,58,13.50
2008,05,17,00,59,13.40
2008,05,17,01,00,13.40
2008,05,17,01,01,13.40
2008,05,17,01,02,13.40
2008,05,17,01,03,13.30
2008,05,17,01,04,13.30
2008,05,17,01,05,13.30
2008,05,17,01,06,13.30
2008,05,17,01,07,13.30
2008,05,17,01,08,13.30
2008,05,17,01,09,13.30
2008,05,17,01,10,13.30
2008,05,17,01,11,13.30
2008,05,17,01,12,13.30
2008,05,17,01,13,13.30
2008,05,17,01,14,13.30
2008,05,17,01,15,13.30
2008,05,17,01,16,13.30
2008,05,17,01,17,13.30
2008,05,17,01,18,13.20
2008,05,17,01,19,13.20
2008,05,17,01,20,13.20
2008,05,17,01,21,13.20
2008,05,17,01,22,13.20
2008,05,17,01,23,13.10
2008,05,17,01,24,13.10
2008,05,17,01,25,13.10
2008,05,17,01,26,13.10
2008,05,17,01,27,13.00
2008,05,17,01,28,13.00
2008,05,17,01,29,13.00
2008,05,17,01,30,13.00
2008,05,17,01,31,13.00
2008,05,17,01,32,12.90
2008,05,17,01,33,12.90
2008,05,17,01,34,12.90
2008,05,17,01,35,12.90
2008,05,17,01,36,12.90
2008,05,17,01,37,12.90
2008,05,17,01,38,12.90
2008,05,17,01,39,12.90
2008,05,17,01,40,12.90
2008,05,17,01,41,12.90
2008,05,17,01,42,12.90
2008,05,17,01,43,12.90
2008,05,17,01,44,12.90
2008,05,17,01,45,12.90
2008,05,17,01,46,12.90
2008,05,17,01,47,12.90
2008,05,17,01,48,12.90
2008,05,17,01,49,12.90
2008,05,17,01,50,12.90
2008,05,17,01,51,12.90
2008,05,17,01,52,12.90
2008,05,17,01,53,12.90
2008,05,17,01,54,12.90
2008,05,17,01,55,12.90
2008,05,17,01,56,12.90
2008,05,17,01,57,12.90
2008,05,17,01,58,12.90
2008,05,17,01,59,12.90
2008,05,17,02,00,12.90
2008,05,17,02,01,12.90
2008,05,17,02,02,12.90
2008,05,17,02,03,12.90
2008,05,17,02,04,12.80
2008,05,17,02,05,12.80
2008,05,17,02,06,12.80
2008,05,17,02,07,12.80
2008,05,17,02,08,12.80
2008,05,17,02,09,12.80
2008,05,17,02,10,12.80
2008,05,17,02,11,12.80
2008,05,17,02,12,12.80
2008,05,17,02,13,12.80
2008,05,17,02,14,12.80
2008,05,17,02,15,12.80
2008,05,17,02,16,12.80
2008,05,17,02,17,12.80
2008,05,17,02,18,12.80
2008,05,17,02,19,12.80
2008,05,17,02,20,12.80
2008,05,17,02,21,12.80
2008,05,17,02,22,12.80
2008,05,17,02,23,12.80
2008,05,17,02,24,12.70
2008,05,17,02,25,12.70
2008,05,17,02,26,12.70
2008,05,17,02,27,12.70
2008,05,17,02,28,12.70
2008,05,17,02,29,12.70
2008,05,17,02,30,12.70
2008,05,17,02,31,12.70
2008,05,17,02,32,12.70
2008,05,17,02,33,12.70
2008,05,17,02,34,12.70
2008,05,17,02,35,12.70
2008,05,17,02,36,12.70
2008,05,17,02,37,12.70
2008,05,17,02,38,12.70
2008,05,17,02,39,12.80
2008,05,17,02,40,12.80
2008,05,17,02,41,12.80
2008,05,17,02,42,12.70
2008,05,17,02,43,12.70
2008,05,17,02,44,12.70
2008,05,17,02,45,12.70
2008,05,17,02,46,12.70
2008,05,17,02,47,12.70
2008,05,17,02,48,12.70
2008,05,17,02,49,12.60
2008,05,17,02,50,12.60
2008,05,17,02,51,12.60
2008,05,17,02,52,12.60
2008,05,17,02,53,12.60
2008,05,17,02,54,12.60
2008,05,17,02,55,12.60
2008,05,17,02,56,12.60
2008,05,17,02,57,12.60
2008,05,17,02,58,12.60
2008,05,17,02,59,12.60
2008,05,17,03,00,12.50
2008,05,17,03,01,12.50
2008,05,17,03,02,12.50
2008,05,17,03,03,12.50
2008,05,17,03,04,12.50
2008,05,17,03,05,12.50
2008,05,17,03,06,12.50
2008,05,17,03,07,12.50
2008,05,17,03,08,12.50
2008,05,17,03,09,12.50
2008,05,17,03,10,12.50
2008,05,17,03,11,12.50
2008,05,17,03,12,12.40
2008,05,17,03,13,12.40
2008,05,17,03,14,12.40
2008,05,17,03,15,12.40
2008,05,17,03,16,12.30
2008,05,17,03,17,12.30
2008,05,17,03,18,12.30
2008,05,17,03,19,12.30
2008,05,17,03,20,12.30
2008,05,17,03,21,12.30
2008,05,17,03,22,12.30
2008,05,17,03,23,12.30
2008,05,17,03,24,12.30
2008,05,17,03,25,12.20
2008,05,17,03,26,12.20
2008,05,17,03,27,12.20
2008,05,17,03,28,12.20
2008,05,17,03,29,12.20
2008,05,17,03,30,12.10
2008,05,17,03,31,12.10
2008,05,17,03,32,12.10
2008,05,17,03,33,12.10
2008,05,17,03,34,12.10
2008,05,17,03,35,12.20
2008,05,17,03,36,12.20
2008,05,17,03,37,12.20
2008,05,17,03,38,12.20
2008,05,17,03,39,12.20
2008,05,17,03,40,12.20
2008,05,17,03,41,12.20
2008,05,17,03,42,12.20
2008,05,17,03,43,12.20
2008,05,17,03,44,12.20
2008,05,17,03,45,12.20
2008,05,17,03,46,12.20
2008,05,17,03,47,12.30
2008,05,17,03,48,12.30
2008,05,17,03,49,12.30
2008,05,17,03,50,12.30
2008,05,17,03,51,12.30
2008,05,17,03,52,12.30
2008,05,17,03,53,12.30
2008,05,17,03,54,12.30
2008,05,17,03,55,12.30
2008,05,17,03,56,12.30
2008,05,17,03,57,12.30
2008,05,17,03,58,12.30
2008,05,17,03,59,12.30
2008,05,17,04,00,12.30
2008,05,17,04,01,12.30
2008,05,17,04,02,12.30
2008,05,17,04,03,12.20
2008,05,17,04,04,12.20
2008,05,17,04,05,12.20
2008,05,17,04,06,12.20
2008,05,17,04,07,12.20
2008,05,17,04,08,12.20
2008,05,17,04,09,12.20
2008,05,17,04,10,12.20
2008,05,17,04,11,12.10
2008,05,17,04,12,12.10
2008,05,17,04,13,12.10
2008,05,17,04,14,12.10
2008,05,17,04,15,12.10
2008,05,17,04,16,12.10
2008,05,17,04,17,12.10
2008,05,17,04,18,12.10
2008,05,17,04,19,12.10
2008,05,17,04,20,12.10
2008,05,17,04,21,12.10
2008,05,17,04,22,12.10
2008,05,17,04,23,12.10
2008,05,17,04,24,12.20
2008,05,17,04,25,12.20
2008,05,17,04,26,12.20
2008,05,17,04,27,12.20
2008,05,17,04,28,12.20
2008,05,17,04,29,12.20
2008,05,17,04,30,12.20
2008,05,17,04,31,12.20
2008,05,17,04,32,12.20
2008,05,17,04,33,12.20
2008,05,17,04,34,12.20
2008,05,17,04,35,12.20
2008,05,17,04,36,12.20
2008,05,17,04,37,12.20
2008,05,17,04,38,12.20
2008,05,17,04,39,12.20
2008,05,17,04,40,12.20
2008,05,17,04,41,12.20
2008,05,17,04,42,12.20
2008,05,17,04,43,12.30
2008,05,17,04,44,12.30
2008,05,17,04,45,12.30
2008,05,17,04,46,12.30
2008,05,17,04,47,12.30
2008,05,17,04,48,12.30
2008,05,17,04,49,12.30
2008,05,17,04,50,12.30
2008,05,17,04,51,12.30
2008,05,17,04,52,12.30
2008,05,17,04,53,12.30
2008,05,17,04,54,12.30
2008,05,17,04,55,12.30
2008,05,17,04,56,12.30
2008,05,17,04,57,12.30
2008,05,17,04,58,12.30
2008,05,17,04,59,12.30
2008,05,17,05,00,12.30
2008,05,17,05,01,12.30
2008,05,17,05,02,12.30
2008,05,17,05,03,12.30
2008,05,17,05,04,12.30
2008,05,17,05,05,12.30
2008,05,17,05,06,12.30
2008,05,17,05,07,12.30
2008,05,17,05,08,12.30
2008,05,17,05,09,12.30
2008,05,17,05,10,12.30
2008,05,17,05,11,12.30
2008,05,17,05,12,12.40
2008,05,17,05,13,12.40
2008,05,17,05,14,12.40
2008,05,17,05,15,12.40
2008,05,17,05,16,12.40
2008,05,17,05,17,12.40
2008,05,17,05,18,12.40
2008,05,17,05,19,12.40
2008,05,17,05,20,12.40
2008,05,17,05,21,12.40
2008,05,17,05,22,12.40
2008,05,17,05,23,12.40
2008,05,17,05,24,12.40
2008,05,17,05,25,12.40
2008,05,17,05,26,12.40
2008,05,17,05,27,12.40
2008,05,17,05,28,12.40
2008,05,17,05,29,12.30
2008,05,17,05,30,12.30
2008,05,17,05,31,12.30
2008,05,17,05,32,12.30
2008,05,17,05,33,12.30
2008,05,17,05,34,12.30
2008,05,17,05,35,12.20
2008,05,17,05,36,12.20
2008,05,17,05,37,12.20
2008,05,17,05,38,12.20
2008,05,17,05,39,12.10
2008,05,17,05,40,12.10
2008,05,17,05,41,12.10
2008,05,17,05,42,12.00
2008,05,17,05,43,12.00
2008,05,17,05,44,12.00
2008,05,17,05,45,12.00
2008,05,17,05,46,12.00
2008,05,17,05,47,12.00
2008,05,17,05,48,11.90
2008,05,17,05,49,11.90
2008,05,17,05,50,11.90
2008,05,17,05,51,11.90
2008,05,17,05,52,11.90
2008,05,17,05,53,11.90
2008,05,17,05,54,11.90
2008,05,17,05,55,11.90
2008,05,17,05,56,11.90
2008,05,17,05,57,11.90
2008,05,17,05,58,11.90
2008,05,17,05,59,12.00
2008,05,17,06,00,12.00
2008,05,17,06,01,12.00
2008,05,17,06,02,12.00
2008,05,17,06,03,12.00
2008,05,17,06,04,12.00
2008,05,17,06,05,12.00
2008,05,17,06,06,12.00
2008,05,17,06,07,12.00
2008,05,17,06,08,12.00
2008,05,17,06,09,12.00
2008,05,17,06,10,12.10
2008,05,17,06,11,12.10
2008,05,17,06,12,12.10
2008,05,17,06,13,12.10
2008,05,17,06,14,12.20
2008,05,17,06,15,12.20
2008,05,17,06,16,12.20
2008,05,17,06,17,12.30
2008,05,17,06,18,12.30
2008,05,17,06,19,12.30
2008,05,17,06,20,12.30
2008,05,17,06,21,12.40
2008,05,17,06,22,12.40
2008,05,17,06,23,12.50
2008,05,17,06,24,12.50
2008,05,17,06,25,12.60
2008,05,17,06,26,12.60
2008,05,17,06,27,12.60
2008,05,17,06,28,12.70
2008,05,17,06,29,12.80
2008,05,17,06,30,12.80
2008,05,17,06,31,12.90
2008,05,17,06,32,13.00
2008,05,17,06,33,13.00
2008,05,17,06,34,13.10
2008,05,17,06,35,13.20
2008,05,17,06,36,13.30
2008,05,17,06,37,13.30
2008,05,17,06,38,13.30
2008,05,17,06,39,13.40
2008,05,17,06,40,13.50
2008,05,17,06,41,13.60
2008,05,17,06,42,13.60
2008,05,17,06,43,13.70
2008,05,17,06,44,13.80
2008,05,17,06,45,13.90
2008,05,17,06,46,14.00
2008,05,17,06,47,14.10
2008,05,17,06,48,14.20
2008,05,17,06,49,14.20
2008,05,17,06,50,14.40
2008,05,17,06,51,14.50
2008,05,17,06,52,14.50
2008,05,17,06,53,14.60
2008,05,17,06,54,14.70
2008,05,17,06,55,14.80
2008,05,17,06,56,15.00
2008,05,17,06,57,15.10
2008,05,17,06,58,15.10
2008,05,17,06,59,15.20
2008,05,17,07,00,15.30
2008,05,17,07,01,15.40
2008,05,17,07,02,15.40
2008,05,17,07,03,15.50
2008,05,17,07,04,15.60
2008,05,17,07,05,15.60
2008,05,17,07,06,15.70
2008,05,17,07,07,15.80
2008,05,17,07,08,15.90
2008,05,17,07,09,16.00
2008,05,17,07,10,16.10
2008,05,17,07,11,16.10
2008,05,17,07,12,16.20
2008,05,17,07,13,16.30
2008,05,17,07,14,16.40
2008,05,17,07,15,16.40
2008,05,17,07,16,16.60
2008,05,17,07,17,16.70
2008,05,17,07,18,16.70
2008,05,17,07,19,16.80
2008,05,17,07,20,16.90
2008,05,17,07,21,17.00
2008,05,17,07,22,17.10
2008,05,17,07,23,17.20
2008,05,17,07,24,17.30
2008,05,17,07,25,17.30
2008,05,17,07,26,17.40
2008,05,17,07,27,17.50
2008,05,17,07,28,17.60
2008,05,17,07,29,17.70
2008,05,17,07,30,17.70
2008,05,17,07,31,17.80
2008,05,17,07,32,17.80
2008,05,17,07,33,17.90
2008,05,17,07,34,17.90
2008,05,17,07,35,17.90
2008,05,17,07,36,18.10
2008,05,17,07,37,18.10
2008,05,17,07,38,18.20
2008,05,17,07,39,18.20
2008,05,17,07,40,18.30
2008,05,17,07,41,18.40
2008,05,17,07,42,18.50
2008,05,17,07,43,18.50
2008,05,17,07,44,18.60
2008,05,17,07,45,18.70
2008,05,17,07,46,18.80
2008,05,17,07,47,18.90
2008,05,17,07,48,19.10
2008,05,17,07,49,19.10
2008,05,17,07,50,19.10
2008,05,17,07,51,19.20
2008,05,17,07,52,19.30
2008,05,17,07,53,19.30
2008,05,17,07,54,19.40
2008,05,17,07,55,19.50
2008,05,17,07,56,19.60
2008,05,17,07,57,19.70
2008,05,17,07,58,19.70
2008,05,17,07,59,19.80
2008,05,17,08,00,19.80
2008,05,17,08,01,19.90
2008,05,17,08,02,19.90
2008,05,17,08,03,20.00
2008,05,17,08,04,20.10
2008,05,17,08,05,20.20
2008,05,17,08,06,20.30
2008,05,17,08,07,20.40
2008,05,17,08,08,20.50
2008,05,17,08,09,20.60
2008,05,17,08,10,20.70
2008,05,17,08,11,20.70
2008,05,17,08,12,20.80
2008,05,17,08,13,21.00
2008,05,17,08,14,21.10
2008,05,17,08,15,21.20
2008,05,17,08,16,21.30
2008,05,17,08,17,21.50
2008,05,17,08,18,21.60
2008,05,17,08,19,21.70
2008,05,17,08,20,21.80
2008,05,17,08,21,21.80
2008,05,17,08,22,21.90
2008,05,17,08,23,21.90
2008,05,17,08,24,21.90
2008,05,17,08,25,21.90
2008,05,17,08,26,22.00
2008,05,17,08,27,22.00
2008,05,17,08,28,22.00
2008,05,17,08,29,22.00
2008,05,17,08,30,22.00
2008,05,17,08,31,22.00
2008,05,17,08,32,22.00
2008,05,17,08,33,22.00
2008,05,17,08,34,22.00
2008,05,17,08,35,21.80
2008,05,17,08,36,21.80
2008,05,17,08,37,21.80
2008,05,17,08,38,21.80
2008,05,17,08,39,21.80
2008,05,17,08,40,21.80
2008,05,17,08,41,21.80
2008,05,17,08,42,21.70
2008,05,17,08,43,21.60
2008,05,17,08,44,21.60
2008,05,17,08,45,21.60
2008,05,17,08,46,21.60
2008,05,17,08,47,21.40
2008,05,17,08,48,21.30
2008,05,17,08,49,21.30
2008,05,17,08,50,21.20
2008,05,17,08,51,21.10
2008,05,17,08,52,20.90
2008,05,17,08,53,20.90
2008,05,17,08,54,20.80
2008,05,17,08,55,20.80
2008,05,17,08,56,20.80
2008,05,17,08,57,20.80
2008,05,17,08,58,20.80
2008,05,17,08,59,20.80
2008,05,17,09,00,20.70
2008,05,17,09,01,20.60
2008,05,17,09,02,20.70
2008,05,17,09,03,20.70
2008,05,17,09,04,20.80
2008,05,17,09,05,20.90
2008,05,17,09,06,21.00
2008,05,17,09,07,21.10
2008,05,17,09,08,21.20
2008,05,17,09,09,21.30
2008,05,17,09,10,21.30
2008,05,17,09,11,21.40
2008,05,17,09,12,21.40
2008,05,17,09,13,21.40
2008,05,17,09,14,21.40
2008,05,17,09,15,21.60
2008,05,17,09,16,21.60
2008,05,17,09,17,21.60
2008,05,17,09,18,21.60
2008,05,17,09,19,21.70
2008,05,17,09,20,21.70
2008,05,17,09,21,21.80
2008,05,17,09,22,21.80
2008,05,17,09,23,21.90
2008,05,17,09,24,21.90
2008,05,17,09,25,21.90
2008,05,17,09,26,21.80
2008,05,17,09,27,21.80
2008,05,17,09,28,21.70
2008,05,17,09,29,21.60
2008,05,17,09,30,21.60
2008,05,17,09,31,21.70
2008,05,17,09,32,21.80
2008,05,17,09,33,21.80
2008,05,17,09,34,21.80
2008,05,17,09,35,21.90
2008,05,17,09,36,21.90
2008,05,17,09,37,21.90
2008,05,17,09,38,22.00
2008,05,17,09,39,22.00
2008,05,17,09,40,22.10
2008,05,17,09,41,22.20
2008,05,17,09,42,22.20
2008,05,17,09,43,22.20
2008,05,17,09,44,22.20
2008,05,17,09,45,22.30
2008,05,17,09,46,22.30
2008,05,17,09,47,22.30
2008,05,17,09,48,22.30
2008,05,17,09,49,22.20
2008,05,17,09,50,22.10
2008,05,17,09,51,22.10
2008,05,17,09,52,22.10
2008,05,17,09,53,22.10
2008,05,17,09,54,22.00
2008,05,17,09,55,22.00
2008,05,17,09,56,22.00
2008,05,17,09,57,22.00
2008,05,17,09,58,22.00
2008,05,17,09,59,22.00
2008,05,17,10,00,22.00
2008,05,17,10,01,22.00
2008,05,17,10,02,21.90
2008,05,17,10,03,21.70
2008,05,17,10,04,21.50
2008,05,17,10,05,21.40
2008,05,17,10,06,21.40
2008,05,17,10,07,21.40
2008,05,17,10,08,21.50
2008,05,17,10,09,21.60
2008,05,17,10,10,21.40
2008,05,17,10,11,21.20
2008,05,17,10,12,21.00
2008,05,17,10,13,21.00
2008,05,17,10,14,21.00
2008,05,17,10,15,20.90
2008,05,17,10,16,20.90
2008,05,17,10,17,20.90
2008,05,17,10,18,21.00
2008,05,17,10,19,21.20
2008,05,17,10,20,21.30
2008,05,17,10,21,21.50
2008,05,17,10,22,21.60
2008,05,17,10,23,21.80
2008,05,17,10,24,21.80
2008,05,17,10,25,21.80
2008,05,17,10,26,21.90
2008,05,17,10,27,22.00
2008,05,17,10,28,22.10
2008,05,17,10,29,22.20
2008,05,17,10,30,22.30
2008,05,17,10,31,22.40
2008,05,17,10,32,22.50
2008,05,17,10,33,22.50
2008,05,17,10,34,22.60
2008,05,17,10,35,22.70
2008,05,17,10,36,22.80
2008,05,17,10,37,22.90
2008,05,17,10,38,22.90
2008,05,17,10,39,22.90
2008,05,17,10,40,22.90
2008,05,17,10,41,22.90
2008,05,17,10,42,22.90
2008,05,17,10,43,22.90
2008,05,17,10,44,23.00
2008,05,17,10,45,23.10
2008,05,17,10,46,23.10
2008,05,17,10,47,23.10
2008,05,17,10,48,23.10
2008,05,17,10,49,23.20
2008,05,17,10,50,23.10
2008,05,17,10,51,23.10
2008,05,17,10,52,23.10
2008,05,17,10,53,23.20
2008,05,17,10,54,23.20
2008,05,17,10,55,23.20
2008,05,17,10,56,23.30
2008,05,17,10,57,23.20
2008,05,17,10,58,23.20
2008,05,17,10,59,23.10
2008,05,17,11,00,23.10
2008,05,17,11,01,23.10
2008,05,17,11,02,23.10
2008,05,17,11,03,23.10
2008,05,17,11,04,23.10
2008,05,17,11,05,23.00
2008,05,17,11,06,22.90
2008,05,17,11,07,22.90
2008,05,17,11,08,22.90
2008,05,17,11,09,23.00
2008,05,17,11,10,23.00
2008,05,17,11,11,23.10
2008,05,17,11,12,23.10
2008,05,17,11,13,23.10
2008,05,17,11,14,23.10
2008,05,17,11,15,23.00
2008,05,17,11,16,22.90
2008,05,17,11,17,22.90
2008,05,17,11,18,22.90
2008,05,17,11,19,22.90
2008,05,17,11,20,22.90
2008,05,17,11,21,22.90
2008,05,17,11,22,22.80
2008,05,17,11,23,22.80
2008,05,17,11,24,22.80
2008,05,17,11,25,22.80
2008,05,17,11,26,22.80
2008,05,17,11,27,22.70
2008,05,17,11,28,22.80
2008,05,17,11,29,22.80
2008,05,17,11,30,22.60
2008,05,17,11,31,22.40
2008,05,17,11,32,22.30
2008,05,17,11,33,22.30
2008,05,17,11,34,22.30
2008,05,17,11,35,22.30
2008,05,17,11,36,22.30
2008,05,17,11,37,22.30
2008,05,17,11,38,22.30
2008,05,17,11,39,22.40
2008,05,17,11,40,22.40
2008,05,17,11,41,22.50
2008,05,17,11,42,22.40
2008,05,17,11,43,22.30
2008,05,17,11,44,22.20
2008,05,17,11,45,22.10
2008,05,17,11,46,22.00
2008,05,17,11,47,22.00
2008,05,17,11,48,21.90
2008,05,17,11,49,21.90
2008,05,17,11,50,22.00
2008,05,17,11,51,22.00
2008,05,17,11,52,22.00
2008,05,17,11,53,22.10
2008,05,17,11,54,22.20
2008,05,17,11,55,22.20
2008,05,17,11,56,22.20
2008,05,17,11,57,22.20
2008,05,17,11,58,22.20
2008,05,17,11,59,22.10
2008,05,17,12,00,22.00
2008,05,17,12,01,21.90
2008,05,17,12,02,21.90
2008,05,17,12,03,21.90
2008,05,17,12,04,21.90
2008,05,17,12,05,21.90
2008,05,17,12,06,21.90
2008,05,17,12,07,21.90
2008,05,17,12,08,21.70
2008,05,17,12,09,21.60
2008,05,17,12,10,21.60
2008,05,17,12,11,21.60
2008,05,17,12,12,21.60
2008,05,17,12,13,21.60
2008,05,17,12,14,21.40
2008,05,17,12,15,21.40
2008,05,17,12,16,21.40
2008,05,17,12,17,21.40
2008,05,17,12,18,21.40
2008,05,17,12,19,21.40
2008,05,17,12,20,21.50
2008,05,17,12,21,21.60
2008,05,17,12,22,21.60
2008,05,17,12,23,21.60
2008,05,17,12,24,21.60
2008,05,17,12,25,21.60
2008,05,17,12,26,21.60
2008,05,17,12,27,21.70
2008,05,17,12,28,21.80
2008,05,17,12,29,21.90
2008,05,17,12,30,22.00
2008,05,17,12,31,22.00
2008,05,17,12,32,22.10
2008,05,17,12,33,22.20
2008,05,17,12,34,22.30
2008,05,17,12,35,22.40
2008,05,17,12,36,22.50
2008,05,17,12,37,22.50
2008,05,17,12,38,22.50
2008,05,17,12,39,22.50
2008,05,17,12,40,22.40
2008,05,17,12,41,22.30
2008,05,17,12,42,22.20
2008,05,17,12,43,22.20
2008,05,17,12,44,22.20
2008,05,17,12,45,22.30
2008,05,17,12,46,22.40
2008,05,17,12,47,22.40
2008,05,17,12,48,22.30
2008,05,17,12,49,22.30
2008,05,17,12,50,22.40
2008,05,17,12,51,22.40
2008,05,17,12,52,22.50
2008,05,17,12,53,22.60
2008,05,17,12,54,22.70
2008,05,17,12,55,22.80
2008,05,17,12,56,22.90
2008,05,17,12,57,22.90
2008,05,17,12,58,23.10
2008,05,17,12,59,23.30
2008,05,17,13,00,23.30
2008,05,17,13,01,23.30
2008,05,17,13,02,23.30
2008,05,17,13,03,23.20
2008,05,17,13,04,23.10
2008,05,17,13,05,23.10
2008,05,17,13,06,23.00
2008,05,17,13,07,22.90
2008,05,17,13,08,22.80
2008,05,17,13,09,22.60
2008,05,17,13,10,22.50
2008,05,17,13,11,22.40
2008,05,17,13,12,22.30
2008,05,17,13,13,22.20
2008,05,17,13,14,22.10
2008,05,17,13,15,22.20
2008,05,17,13,16,22.30
2008,05,17,13,17,22.40
2008,05,17,13,18,22.50
2008,05,17,13,19,22.50
2008,05,17,13,20,22.60
2008,05,17,13,21,22.70
2008,05,17,13,22,22.70
2008,05,17,13,23,22.80
2008,05,17,13,24,22.90
2008,05,17,13,25,22.90
2008,05,17,13,26,22.90
2008,05,17,13,27,22.90
2008,05,17,13,28,23.00
2008,05,17,13,29,22.90
2008,05,17,13,30,22.70
2008,05,17,13,31,22.60
2008,05,17,13,32,22.60
2008,05,17,13,33,22.70
2008,05,17,13,34,22.80
2008,05,17,13,35,22.90
2008,05,17,13,36,22.90
2008,05,17,13,37,22.90
2008,05,17,13,38,23.00
2008,05,17,13,39,23.10
2008,05,17,13,40,23.30
2008,05,17,13,41,23.20
2008,05,17,13,42,23.20
2008,05,17,13,43,23.30
2008,05,17,13,44,23.30
2008,05,17,13,45,23.20
2008,05,17,13,46,23.30
2008,05,17,13,47,23.30
2008,05,17,13,48,23.30
2008,05,17,13,49,23.30
2008,05,17,13,50,23.40
2008,05,17,13,51,23.50
2008,05,17,13,52,23.60
2008,05,17,13,53,23.50
2008,05,17,13,54,23.40
2008,05,17,13,55,23.40
2008,05,17,13,56,23.60
2008,05,17,13,57,23.70
2008,05,17,13,58,23.90
2008,05,17,13,59,24.10
2008,05,17,14,00,24.00
2008,05,17,14,01,23.90
2008,05,17,14,02,23.80
2008,05,17,14,03,23.80
2008,05,17,14,04,23.80
2008,05,17,14,05,23.70
2008,05,17,14,06,23.50
2008,05,17,14,07,23.20
2008,05,17,14,08,23.10
2008,05,17,14,09,23.00
2008,05,17,14,10,22.90
2008,05,17,14,11,22.70
2008,05,17,14,12,22.70
2008,05,17,14,13,22.70
2008,05,17,14,14,22.70
2008,05,17,14,15,22.70
2008,05,17,14,16,22.60
2008,05,17,14,17,22.70
2008,05,17,14,18,22.60
2008,05,17,14,19,22.40
2008,05,17,14,20,22.30
2008,05,17,14,21,22.20
2008,05,17,14,22,22.20
2008,05,17,14,23,22.20
2008,05,17,14,24,22.30
2008,05,17,14,25,22.30
2008,05,17,14,26,22.40
2008,05,17,14,27,22.40
2008,05,17,14,28,22.40
2008,05,17,14,29,22.50
2008,05,17,14,30,22.50
2008,05,17,14,31,22.50
2008,05,17,14,32,22.50
2008,05,17,14,33,22.40
2008,05,17,14,34,22.40
2008,05,17,14,35,22.20
2008,05,17,14,36,22.00
2008,05,17,14,37,21.90
2008,05,17,14,38,21.90
2008,05,17,14,39,22.00
2008,05,17,14,40,22.10
2008,05,17,14,41,22.20
2008,05,17,14,42,22.40
2008,05,17,14,43,22.50
2008,05,17,14,44,22.60
2008,05,17,14,45,22.60
2008,05,17,14,46,22.70
2008,05,17,14,47,22.90
2008,05,17,14,48,23.00
2008,05,17,14,49,23.10
2008,05,17,14,50,23.30
2008,05,17,14,51,23.40
2008,05,17,14,52,23.60
2008,05,17,14,53,23.80
2008,05,17,14,54,24.00
2008,05,17,14,55,24.30
2008,05,17,14,56,24.60
2008,05,17,14,57,24.80
2008,05,17,14,58,24.90
2008,05,17,14,59,25.00
2008,05,17,15,00,25.10
2008,05,17,15,01,25.30
2008,05,17,15,02,25.30
2008,05,17,15,03,25.40
2008,05,17,15,04,25.40
2008,05,17,15,05,25.30
2008,05,17,15,06,25.40
2008,05,17,15,07,25.50
2008,05,17,15,08,25.60
2008,05,17,15,09,25.70
2008,05,17,15,10,25.70
2008,05,17,15,11,25.80
2008,05,17,15,12,25.70
2008,05,17,15,13,25.50
2008,05,17,15,14,25.40
2008,05,17,15,15,25.30
2008,05,17,15,16,25.30
2008,05,17,15,17,25.30
2008,05,17,15,18,25.30
2008,05,17,15,19,25.20
2008,05,17,15,20,25.20
2008,05,17,15,21,25.30
2008,05,17,15,22,25.40
2008,05,17,15,23,25.40
2008,05,17,15,24,25.30
2008,05,17,15,25,25.20
2008,05,17,15,26,25.00
2008,05,17,15,27,24.80
2008,05,17,15,28,24.70
2008,05,17,15,29,24.70
2008,05,17,15,30,24.60
2008,05,17,15,31,24.50
2008,05,17,15,32,24.40
2008,05,17,15,33,24.40
2008,05,17,15,34,24.40
2008,05,17,15,35,24.50
2008,05,17,15,36,24.50
2008,05,17,15,37,24.60
2008,05,17,15,38,24.70
2008,05,17,15,39,24.80
2008,05,17,15,40,24.90
2008,05,17,15,41,25.00
2008,05,17,15,42,25.20
2008,05,17,15,43,25.30
2008,05,17,15,44,25.40
2008,05,17,15,45,25.50
2008,05,17,15,46,25.60
2008,05,17,15,47,25.70
2008,05,17,15,48,25.80
2008,05,17,15,49,25.90
2008,05,17,15,50,26.10
2008,05,17,15,51,26.30
2008,05,17,15,52,26.40
2008,05,17,15,53,26.60
2008,05,17,15,54,26.80
2008,05,17,15,55,27.00
2008,05,17,15,56,27.20
2008,05,17,15,57,27.30
2008,05,17,15,58,27.50
2008,05,17,15,59,27.70
2008,05,17,16,00,27.80
2008,05,17,16,01,27.90
2008,05,17,16,02,27.90
2008,05,17,16,03,27.70
2008,05,17,16,04,27.60
2008,05,17,16,05,27.50
2008,05,17,16,06,27.40
2008,05,17,16,07,27.40
2008,05,17,16,08,27.40
2008,05,17,16,09,27.40
2008,05,17,16,10,27.40
2008,05,17,16,11,27.50
2008,05,17,16,12,27.50
2008,05,17,16,13,27.40
2008,05,17,16,14,27.30
2008,05,17,16,15,27.40
2008,05,17,16,16,27.50
2008,05,17,16,17,27.60
2008,05,17,16,18,27.70
2008,05,17,16,19,27.70
2008,05,17,16,20,27.80
2008,05,17,16,21,27.90
2008,05,17,16,22,27.70
2008,05,17,16,23,27.30
2008,05,17,16,24,27.10
2008,05,17,16,25,26.90
2008,05,17,16,26,26.90
2008,05,17,16,27,27.10
2008,05,17,16,28,27.30
2008,05,17,16,29,27.50
2008,05,17,16,30,27.80
2008,05,17,16,31,28.00
2008,05,17,16,32,28.30
2008,05,17,16,33,28.50
2008,05,17,16,34,28.70
2008,05,17,16,35,28.90
2008,05,17,16,36,29.00
2008,05,17,16,37,29.10
2008,05,17,16,38,29.20
2008,05,17,16,39,29.30
2008,05,17,16,40,29.30
2008,05,17,16,41,29.30
2008,05,17,16,42,29.30
2008,05,17,16,43,29.40
2008,05,17,16,44,29.40
2008,05,17,16,45,29.50
2008,05,17,16,46,29.50
2008,05,17,16,47,29.60
2008,05,17,16,48,29.60
2008,05,17,16,49,29.60
2008,05,17,16,50,29.70
2008,05,17,16,51,29.70
2008,05,17,16,52,29.60
2008,05,17,16,53,29.60
2008,05,17,16,54,29.50
2008,05,17,16,55,29.50
2008,05,17,16,56,29.40
2008,05,17,16,57,29.40
2008,05,17,16,58,29.40
2008,05,17,16,59,29.40
2008,05,17,17,00,29.40
2008,05,17,17,01,29.40
2008,05,17,17,02,29.30
2008,05,17,17,03,29.30
2008,05,17,17,04,29.20
2008,05,17,17,05,29.30
2008,05,17,17,06,29.20
2008,05,17,17,07,29.10
2008,05,17,17,08,29.10
2008,05,17,17,09,29.20
2008,05,17,17,10,29.20
2008,05,17,17,11,29.20
2008,05,17,17,12,29.10
2008,05,17,17,13,29.10
2008,05,17,17,14,28.90
2008,05,17,17,15,28.90
2008,05,17,17,16,28.90
2008,05,17,17,17,28.90
2008,05,17,17,18,28.90
2008,05,17,17,19,28.80